STARLINK-1091, 44940

Orbit data source: Space-Track

STARLINK-1091, 44940 is a payload satellite owned by SpaceX/Seattle (US) in LEO that was launched on Tue, 07 Jan 2020 UTC via an FALCON 9 launch vehicle from the Air Force Eastern Test Range (AFETR). Payload-class satellites include a variety of spacecraft equipped with specific instruments for various scientific and technological missions. These include communications satellites like Starlink; space stations such as the ISS; scientific satellites like the Hubble; Earth observation satellites from companies like Planet Labs, Umbra, and HawkEye 360; GPS; miniature CubeSats for education and research; and military/defense satellites.

Not visible in the next 10 days
Identifier
44940, 2020-001AC
Orbit
LEO
Country
Flag of USUS
Related business
Manufacturer
SpaceX/Seattle
Mission
Partially operational Commercial Communications
Bus & Motor
STARLINK, Unknown motor
Mass
260 kg wet, ~248 kg dry
Launch date (UTC)
2020-01-07 (6 years ago)
Launch vehicle
FALCON 9
Launch site
Air Force Eastern Test Range (AFETR)
Object type
Payload
Rocket body
Debris
Shape & HBR
Box + 1 Pan, 10.1 m
Radar Cross Section
13.562 m², Large (>1 m²)

Expand to show TLE details & history
Last TLE update: 4 hours ago

TLE from 4 hours ago
0 STARLINK-1091
1 44940U 20001AC  25289.00002315  .00277978  00000-0  88415-3 0  9990
2 44940  53.0386 196.9791 0002382 121.1956 159.4483 15.89912767  6005
Epoch: 2025-10-16T00:00Z
TLE epoch observation values (Epoch: 2025-10-16T00:00:02.000Z)
Latitude
-51.90892°
Longitude
99.5372°
Altitude
321.977 km
Speed
7.714 km/s
True Right ascension
08h 17m 14s
True Declination
-51° 43' 51"
Sunlit
Object was in daylight at epoch
Visualization orbit readout
Latitude
Unknown
Longitude
Unknown
Altitude
Unknown
Speed
Unknown
Apparent Right ascension
Unknown
Apparent Declination
Unknown
Sunlit
N/A
Visualization observer readout
Local Sidereal Time
22:50:42
Azimuth
Unknown
Elevation
Unknown
Doppler factor
Unknown
Orbital elements
Apogee altitude
304.402 km
Perigee altitude
301.219 km
Semi-major axis
6,680.947 km
Eccentricity
0.00024
Inclination
53.0386°
RAAN
196.9791°
Arg. of periapsis
121.1956°
True anomaly
159.45788°
Mean anomaly
159.4483°
Eccentric anomaly
159.45309°
Mean motion
3.97453 °/min
Orbital period
90.58 mins
BSTAR
0.00088415
Loading maneuver chart data...
Computing Atmospheric mass density...
Loading historical data...
Loading historical data...
Loading historical data...
Loading historical data...
Loading historical data...
Loading historical data...
Loading historical data...

Documentation

Showing up to 5 results
|